• MPC Preparation (Info)

  • MPEC 2019-V60 : 2019 VP1

    The following Minor Planet Electronic Circular may be linked-to from your own Web pages, but must not otherwise be redistributed electronically.

    A form allowing access to any MPEC is at the bottom of this page.


    Read MPEC 2019-V59 Read MPEC 2019-V61


    M.P.E.C. 2019-V60                              Issued 2019 November 5, 02:36 UT
    
         The Minor Planet Electronic Circulars contain information on unusual
             minor planets and routine data on comets.  They are published
        on behalf of Division F of the International Astronomical Union by the
              Minor Planet Center, Smithsonian Astrophysical Observatory,
                              Cambridge, MA 02138, U.S.A.
    
                 Prepared using the Tamkin Foundation Computer Network
    
                                  MPC@CFA.HARVARD.EDU
                URL https://www.minorplanetcenter.net/    ISSN 1523-6714
    
                                    2019 VP1                                 
    
    
    Observations:
         K19V01P  C2019 10 07.43976202 25 20.802+31 10 18.46         22.1 GVEV060F51
         K19V01P  C2019 10 07.45302502 25 21.527+31 10 41.85         22.1 GVEV060F51
         K19V01P  C2019 10 07.46564602 25 22.181+31 11 04.20         21.9 GVEV060F51
         K19V01P  C2019 10 08.36368702 26 19.317+31 37 22.37         22.1 GVEV060F51
         K19V01P  C2019 10 08.37547502 26 19.952+31 37 43.66         21.8 GVEV060F51
         K19V01P  C2019 11 01.45814502 46 24.143+41 41 25.76         21.48GVEV060F51
         K19V01P  C2019 11 01.47014702 46 24.476+41 41 38.67         21.21GVEV060F51
         K19V01P  C2019 11 01.48216402 46 24.810+41 41 51.59         21.19GVEV060F51
         K19V01P* C2019 11 02.46611202 47 04.664+41 59 29.42         21.49wUEV060F51
         K19V01P  C2019 11 02.47750802 47 04.981+41 59 41.07         21.55wUEV060F51
         K19V01P  C2019 11 02.48885902 47 05.304+41 59 52.76         21.41wUEV060F51
         K19V01P  C2019 11 03.24777902 47 36.97 +42 12 53.0          21.1 GVEV060H01
         K19V01P  C2019 11 03.25204102 47 37.09 +42 12 57.4          21.0 GVEV060H01
         K19V01P  C2019 11 03.26414202 47 37.44 +42 13 10.0          21.2 GVEV060H01
         K19V01P  C2019 11 03.27189202 47 37.67 +42 13 18.0          21.3 GVEV060H01
    
    Observer details:
    F51 Pan-STARRS 1, Haleakala.  Observers J. Bulger, K. Chambers, T. Lowe, E. 
       Magnier, A. Schultz, M. Willman.  Measurers S. Chastel, M. Huber, Y. 
       Ramanjooloo, R. Wainscoat, R. Weryk, K. Chambers, T. de Boer, L. Denneau, J. 
       Fairlamb, H. Flewelling, C.-C. Lin, E. Magnier.  1.8-m Ritchey-Chretien + 
       CCD.
    H01 Magdalena Ridge Observatory, Socorro.  Observers W. H. Ryan, E. V. Ryan.  
        Measurer W. H. Ryan.  2.4-m f/8.9 Ritchey-Chretien + CCD.
    
    Orbital elements:
    2019 VP1                                                 Earth MOID = 0.3607 AU
    Epoch 2019 Apr. 27.0 TT = JDT 2458600.5                 Bell
    M 322.90247              (2000.0)            P               Q
    n   0.19425681     Peri.   59.63440     +0.71537853     -0.69780560
    a   2.9526947      Node   344.51791     +0.58571893     +0.62701597
    e   0.5501097      Incl.    7.76544     +0.38100772     +0.34629224
    P   5.07           H   22.2           G   0.15           U   6
    Residuals in seconds of arc
    191007 F51  0.0   0.2+    191101 F51  0.0   0.1+    191102 F51  0.0   0.0
    191007 F51  0.1+  0.1-    191101 F51  0.0   0.0     191103 H01  0.0   0.1+
    191007 F51  0.1-  0.1-    191101 F51  0.1-  0.0     191103 H01  0.0   0.0
    191008 F51  0.1+  0.0     191102 F51  0.0   0.0     191103 H01  0.0   0.1+
    191008 F51  0.1-  0.0     191102 F51  0.0   0.1-    191103 H01  0.0   0.1+
    
    Ephemeris:
    2019 VP1                 a,e,i = 2.95, 0.55, 8                   q = 1.3284
    Date    TT    R. A. (2000) Decl.     Delta      r    Elong.  Phase     V
    2019 10 06    02 23 48.3 +30 27 48   0.4196  1.3661   145.3    24.6    22.1
    ...
    2019 10 21    02 38 00.4 +37 27 52   0.3788  1.3372   150.0    21.9    21.8
    ...
    2019 10 29    02 44 02.0 +40 33 43   0.3690  1.3299   151.7    20.8    21.7
    ...
    2019 11 04    02 48 06.5 +42 25 22   0.3668  1.3283   152.5    20.1    21.6
    2019 11 05    02 48 46.4 +42 41 22   0.3669  1.3283   152.7    20.1    21.6
    2019 11 06    02 49 26.3 +42 56 36   0.3671  1.3284   152.8    20.0    21.6
    ...
    2019 11 12    02 53 29.8 +44 11 24   0.3707  1.3312   153.1    19.6    21.7
    ...
    2019 11 20    02 59 25.6 +45 06 43   0.3819  1.3400   153.1    19.5    21.7
    ...
    2019 12 05    03 14 00.2 +44 48 11   0.4236  1.3715   151.0    20.4    22.0
    
    A. U. Tomatic                (C) Copyright 2019 MPC           M.P.E.C. 2019-V60
    


    Read MPEC 2019-V59 Read MPEC 2019-V61


    MPEC number:

    Enter an MPEC number in one of the following forms:

    • 1997-B01 (the full form)
    • J97B01 (the packed version of the full form)
    • B01 (the abbreviated form)